Saint Bonnet de Bellac- Haute Vienne - France
Donnes mto: lundi, 11/06/2012
Date Horaire Temp. E. Hum. E. P.atmo. Pluie Vent Direction Direction Ensoleilleme Solaire P. de rose Temp au vent Rafales
11/06/2012 00:00 13,6 C 87 % 1008,8 hPa 0,0 mm 8,3 km/h (2 Bft) SO 225 0 min 0 W/m 11,5 C 13,6 C 9,0 km/h (2 Bft)
11/06/2012 00:10 13,5 C 88 % 1008,7 hPa 0,0 mm 6,8 km/h (2 Bft) O-SO 247 0 min 0 W/m 11,6 C 13,5 C 10,8 km/h (2 Bft)
11/06/2012 00:20 13,4 C 88 % 1008,7 hPa 0,0 mm 4,3 km/h (1 Bft) S 180 0 min 0 W/m 11,5 C 13,4 C 7,2 km/h (2 Bft)
11/06/2012 00:30 13,4 C 88 % 1008,8 hPa 0,0 mm 6,8 km/h (2 Bft) S-SO 202 0 min 0 W/m 11,5 C 13,4 C 9,4 km/h (2 Bft)
11/06/2012 00:40 13,4 C 89 % 1008,7 hPa 0,0 mm 7,6 km/h (2 Bft) O-SO 247 0 min 0 W/m 11,6 C 13,4 C 7,6 km/h (2 Bft)
11/06/2012 00:50 13,3 C 89 % 1008,7 hPa 0,0 mm 10,1 km/h (2 Bft) SO 225 0 min 0 W/m 11,5 C 13,3 C 13,0 km/h (3 Bft)
11/06/2012 01:00 13,3 C 90 % 1008,6 hPa 0,0 mm 6,1 km/h (2 Bft) SO 225 0 min 0 W/m 11,7 C 13,3 C 11,5 km/h (2 Bft)
11/06/2012 01:10 13,2 C 90 % 1008,6 hPa 0,0 mm 7,2 km/h (2 Bft) S-SO 202 0 min 0 W/m 11,6 C 13,2 C 11,5 km/h (2 Bft)
11/06/2012 01:20 13,2 C 90 % 1008,6 hPa 0,0 mm 7,2 km/h (2 Bft) O-SO 247 0 min 0 W/m 11,6 C 13,2 C 11,9 km/h (2 Bft)
11/06/2012 01:30 13,1 C 90 % 1008,6 hPa 0,0 mm 8,3 km/h (2 Bft) O-SO 247 0 min 0 W/m 11,5 C 13,1 C 13,7 km/h (3 Bft)
11/06/2012 01:40 12,9 C 91 % 1008,4 hPa 0,1 mm 9,7 km/h (2 Bft) SO 225 0 min 0 W/m 11,5 C 12,9 C 13,3 km/h (3 Bft)
11/06/2012 01:50 12,9 C 91 % 1008,4 hPa 0,0 mm 2,2 km/h (1 Bft) O 270 0 min 0 W/m 11,5 C 12,9 C 6,5 km/h (2 Bft)
11/06/2012 02:00 12,8 C 92 % 1008,3 hPa 0,0 mm 3,6 km/h (1 Bft) O-SO 247 0 min 0 W/m 11,5 C 12,8 C 15,8 km/h (3 Bft)
11/06/2012 02:10 12,8 C 92 % 1008,3 hPa 0,0 mm 3,6 km/h (1 Bft) O-SO 247 0 min 0 W/m 11,5 C 12,8 C 6,5 km/h (2 Bft)
11/06/2012 02:20 12,8 C 92 % 1008,3 hPa 0,0 mm 8,6 km/h (2 Bft) S-SO 202 0 min 0 W/m 11,5 C 12,8 C 11,9 km/h (2 Bft)
11/06/2012 02:30 12,9 C 92 % 1008,3 hPa 0,0 mm 4,3 km/h (1 Bft) S 180 0 min 0 W/m 11,6 C 12,9 C 11,9 km/h (2 Bft)
11/06/2012 02:40 12,9 C 92 % 1008,2 hPa 0,0 mm 2,5 km/h (1 Bft) O-SO 247 0 min 0 W/m 11,6 C 12,9 C 3,2 km/h (1 Bft)
11/06/2012 02:50 12,9 C 92 % 1008,1 hPa 0,0 mm 6,5 km/h (2 Bft) SO 225 0 min 0 W/m 11,6 C 12,9 C 6,5 km/h (2 Bft)
11/06/2012 03:02 12,9 C 92 % 1008,2 hPa 0,0 mm 3,6 km/h (1 Bft) O-SO 247 0 min 0 W/m 11,6 C 12,9 C 3,6 km/h (1 Bft)
11/06/2012 03:10 12,9 C 92 % 1008,1 hPa 0,0 mm 5,0 km/h (1 Bft) S-SO 202 0 min 0 W/m 11,6 C 12,9 C 8,3 km/h (2 Bft)
11/06/2012 03:20 12,9 C 92 % 1008,1 hPa 0,0 mm 6,5 km/h (2 Bft) S-SO 202 0 min 0 W/m 11,6 C 12,9 C 7,9 km/h (2 Bft)
11/06/2012 03:30 12,9 C 92 % 1008,1 hPa 0,0 mm 2,9 km/h (1 Bft) O-SO 247 0 min 0 W/m 11,6 C 12,9 C 9,7 km/h (2 Bft)
11/06/2012 03:40 12,8 C 92 % 1008,0 hPa 0,0 mm 4,0 km/h (1 Bft) O 270 0 min 0 W/m 11,5 C 12,8 C 8,3 km/h (2 Bft)
11/06/2012 03:50 12,8 C 92 % 1008,0 hPa 0,0 mm 2,5 km/h (1 Bft) SO 225 0 min 0 W/m 11,5 C 12,8 C 7,2 km/h (2 Bft)
11/06/2012 04:00 12,8 C 92 % 1008,0 hPa 0,0 mm 2,9 km/h (1 Bft) O 270 0 min 0 W/m 11,5 C 12,8 C 10,4 km/h (2 Bft)
11/06/2012 04:10 12,8 C 92 % 1007,9 hPa 0,0 mm 1,4 km/h (1 Bft) O-SO 247 0 min 0 W/m 11,5 C 12,8 C 3,2 km/h (1 Bft)
11/06/2012 04:20 12,8 C 92 % 1007,9 hPa 0,0 mm 0,0 km/h (0 Bft) O-SO 247 0 min 0 W/m 11,5 C 12,8 C 0,0 km/h (0 Bft)
11/06/2012 04:30 12,8 C 92 % 1008,0 hPa 0,0 mm 2,5 km/h (1 Bft) SO 225 0 min 0 W/m 11,5 C 12,8 C 6,5 km/h (2 Bft)
11/06/2012 04:40 12,7 C 92 % 1007,9 hPa 0,0 mm 3,2 km/h (1 Bft) O 270 0 min 0 W/m 11,4 C 12,7 C 10,4 km/h (2 Bft)
11/06/2012 04:50 12,6 C 92 % 1007,9 hPa 0,0 mm 1,4 km/h (1 Bft) O-SO 247 0 min 0 W/m 11,3 C 12,6 C 4,3 km/h (1 Bft)
11/06/2012 05:00 12,6 C 92 % 1007,9 hPa 0,0 mm 0,4 km/h (0 Bft) O 270 0 min 0 W/m 11,3 C 12,6 C 0,4 km/h (0 Bft)
11/06/2012 05:10 12,6 C 92 % 1007,9 hPa 0,0 mm 2,5 km/h (1 Bft) S-SO 202 0 min 0 W/m 11,3 C 12,6 C 2,5 km/h (1 Bft)
11/06/2012 05:20 12,6 C 92 % 1007,9 hPa 0,0 mm 2,9 km/h (1 Bft) SO 225 0 min 0 W/m 11,3 C 12,6 C 4,3 km/h (1 Bft)
11/06/2012 05:30 12,6 C 92 % 1007,9 hPa 0,0 mm 2,5 km/h (1 Bft) O-SO 247 0 min 0 W/m 11,3 C 12,6 C 3,6 km/h (1 Bft)
11/06/2012 05:40 12,6 C 92 % 1007,8 hPa 0,0 mm 3,6 km/h (1 Bft) S-SO 202 0 min 0 W/m 11,3 C 12,6 C 8,3 km/h (2 Bft)
11/06/2012 05:50 12,6 C 92 % 1007,8 hPa 0,1 mm 0,0 km/h (0 Bft) SO 225 0 min 0 W/m 11,3 C 12,6 C 0,0 km/h (0 Bft)
11/06/2012 06:00 12,6 C 92 % 1007,8 hPa 0,4 mm 0,0 km/h (0 Bft) NO 315 0 min 0 W/m 11,3 C 12,6 C 0,0 km/h (0 Bft)
11/06/2012 06:10 12,6 C 92 % 1007,8 hPa 0,1 mm 0,4 km/h (0 Bft) O-NO 292 0 min 0 W/m 11,3 C 12,6 C 3,2 km/h (1 Bft)
11/06/2012 06:20 12,5 C 92 % 1007,8 hPa 0,1 mm 0,0 km/h (0 Bft) S-SE 157 0 min 0 W/m 11,2 C 12,5 C 3,2 km/h (1 Bft)
11/06/2012 06:30 12,4 C 92 % 1007,9 hPa 0,1 mm 3,2 km/h (1 Bft) O-SO 247 0 min 0 W/m 11,1 C 12,4 C 6,8 km/h (2 Bft)
11/06/2012 06:40 12,4 C 92 % 1007,8 hPa 0,0 mm 0,0 km/h (0 Bft) O-SO 247 0 min 0 W/m 11,1 C 12,4 C 3,6 km/h (1 Bft)
11/06/2012 06:50 12,3 C 92 % 1007,8 hPa 0,0 mm 0,0 km/h (0 Bft) O-SO 247 0 min 0 W/m 11,0 C 12,3 C 0,0 km/h (0 Bft)
11/06/2012 07:00 12,3 C 93 % 1007,8 hPa 0,0 mm 2,2 km/h (1 Bft) SO 225 0 min 0 W/m 11,2 C 12,3 C 4,0 km/h (1 Bft)
11/06/2012 07:10 12,3 C 93 % 1007,6 hPa 0,0 mm 1,4 km/h (1 Bft) S-SO 202 0 min 0 W/m 11,2 C 12,3 C 4,3 km/h (1 Bft)
11/06/2012 07:20 12,3 C 93 % 1007,6 hPa 0,0 mm 0,0 km/h (0 Bft) S-SO 202 0 min 0 W/m 11,2 C 12,3 C 0,0 km/h (0 Bft)
11/06/2012 07:30 12,3 C 93 % 1007,7 hPa 0,0 mm 0,7 km/h (0 Bft) SO 225 0 min 0 W/m 11,2 C 12,3 C 0,7 km/h (0 Bft)
11/06/2012 07:40 12,4 C 93 % 1007,7 hPa 0,0 mm 0,4 km/h (0 Bft) O-SO 247 0 min 0 W/m 11,3 C 12,4 C 0,4 km/h (0 Bft)
11/06/2012 07:50 12,4 C 93 % 1007,7 hPa 0,1 mm 1,4 km/h (1 Bft) O 270 0 min 0 W/m 11,3 C 12,4 C 4,3 km/h (1 Bft)
11/06/2012 08:00 12,4 C 93 % 1007,6 hPa 0,1 mm 0,0 km/h (0 Bft) SO 225 0 min 0 W/m 11,3 C 12,4 C 0,0 km/h (0 Bft)
11/06/2012 08:10 12,4 C 93 % 1007,6 hPa 0,1 mm 1,4 km/h (1 Bft) S-SO 202 0 min 0 W/m 11,3 C 12,4 C 4,3 km/h (1 Bft)
11/06/2012 08:20 12,4 C 93 % 1007,6 hPa 0,0 mm 1,8 km/h (1 Bft) S-SO 202 0 min 0 W/m 11,3 C 12,4 C 4,3 km/h (1 Bft)
11/06/2012 08:30 12,4 C 93 % 1007,6 hPa 0,3 mm 2,9 km/h (1 Bft) O-NO 292 0 min 0 W/m 11,3 C 12,4 C 6,5 km/h (2 Bft)
11/06/2012 08:40 12,4 C 93 % 1007,6 hPa 0,0 mm 0,0 km/h (0 Bft) O-NO 292 0 min 0 W/m 11,3 C 12,4 C 0,0 km/h (0 Bft)
11/06/2012 08:50 12,6 C 93 % 1007,6 hPa 0,3 mm 2,2 km/h (1 Bft) NO 315 0 min 0 W/m 11,5 C 12,6 C 3,6 km/h (1 Bft)
11/06/2012 09:00 12,6 C 93 % 1007,5 hPa 0,5 mm 0,0 km/h (0 Bft) O-NO 292 0 min 0 W/m 11,5 C 12,6 C 0,0 km/h (0 Bft)
11/06/2012 09:10 12,6 C 93 % 1007,5 hPa 0,3 mm 0,0 km/h (0 Bft) O-NO 292 0 min 0 W/m 11,5 C 12,6 C 0,0 km/h (0 Bft)
11/06/2012 09:20 12,6 C 93 % 1007,4 hPa 0,0 mm 0,0 km/h (0 Bft) O 270 0 min 0 W/m 11,5 C 12,6 C 0,0 km/h (0 Bft)
11/06/2012 09:30 12,7 C 94 % 1007,3 hPa 0,0 mm 0,4 km/h (0 Bft) O-SO 247 0 min 0 W/m 11,8 C 12,7 C 0,4 km/h (0 Bft)
11/06/2012 09:40 12,9 C 94 % 1007,3 hPa 0,0 mm 5,4 km/h (2 Bft) S-SO 202 0 min 0 W/m 12,0 C 12,9 C 7,9 km/h (2 Bft)
11/06/2012 09:50 13,3 C 94 % 1007,3 hPa 0,0 mm 6,5 km/h (2 Bft) O-SO 247 0 min 0 W/m 12,4 C 13,3 C 10,1 km/h (2 Bft)
11/06/2012 10:00 13,4 C 93 % 1007,2 hPa 0,0 mm 5,8 km/h (2 Bft) O-SO 247 0 min 0 W/m 12,3 C 13,4 C 9,0 km/h (2 Bft)
11/06/2012 10:10 13,6 C 93 % 1007,1 hPa 0,0 mm 4,7 km/h (1 Bft) SO 225 0 min 0 W/m 12,5 C 13,6 C 4,7 km/h (1 Bft)
11/06/2012 10:20 13,9 C 92 % 1007,0 hPa 0,0 mm 1,8 km/h (1 Bft) O-SO 247 0 min 0 W/m 12,6 C 13,9 C 3,6 km/h (1 Bft)
11/06/2012 10:30 14,3 C 91 % 1006,9 hPa 0,0 mm 9,0 km/h (2 Bft) S-SO 202 0 min 0 W/m 12,8 C 14,3 C 15,1 km/h (3 Bft)
11/06/2012 10:40 14,8 C 89 % 1006,7 hPa 0,0 mm 4,7 km/h (1 Bft) S-SO 202 0 min 0 W/m 13,0 C 14,8 C 9,4 km/h (2 Bft)
11/06/2012 10:50 15,1 C 88 % 1006,7 hPa 0,0 mm 7,6 km/h (2 Bft) SO 225 0 min 0 W/m 13,1 C 15,1 C 11,2 km/h (2 Bft)
11/06/2012 11:00 15,4 C 86 % 1006,5 hPa 0,0 mm 7,9 km/h (2 Bft) S-SO 202 0 min 0 W/m 13,1 C 15,4 C 12,2 km/h (2 Bft)
11/06/2012 11:10 15,6 C 85 % 1006,6 hPa 0,0 mm 10,8 km/h (2 Bft) S-SO 202 0 min 0 W/m 13,1 C 15,6 C 10,8 km/h (2 Bft)
11/06/2012 11:20 15,1 C 86 % 1006,5 hPa 0,0 mm 9,4 km/h (2 Bft) SO 225 0 min 0 W/m 12,8 C 15,1 C 15,5 km/h (3 Bft)
11/06/2012 11:30 14,8 C 87 % 1006,4 hPa 0,0 mm 9,0 km/h (2 Bft) SO 225 0 min 0 W/m 12,7 C 14,8 C 10,8 km/h (2 Bft)
11/06/2012 11:40 15,4 C 87 % 1006,4 hPa 0,0 mm 11,2 km/h (2 Bft) SO 225 0 min 0 W/m 13,2 C 15,4 C 11,5 km/h (2 Bft)
11/06/2012 11:50 15,8 C 85 % 1006,3 hPa 0,0 mm 9,7 km/h (2 Bft) S-SO 202 0 min 0 W/m 13,3 C 15,8 C 16,6 km/h (3 Bft)
11/06/2012 12:00 15,9 C 85 % 1006,2 hPa 0,0 mm 5,0 km/h (1 Bft) O-SO 247 0 min 0 W/m 13,4 C 15,9 C 7,9 km/h (2 Bft)
11/06/2012 12:10 16,4 C 84 % 1006,2 hPa 0,0 mm 5,8 km/h (2 Bft) SO 225 0 min 0 W/m 13,7 C 16,4 C 11,5 km/h (2 Bft)
11/06/2012 12:20 16,5 C 83 % 1006,2 hPa 0,0 mm 6,5 km/h (2 Bft) S-SO 202 0 min 0 W/m 13,6 C 16,5 C 9,0 km/h (2 Bft)
11/06/2012 12:30 16,6 C 80 % 1006,0 hPa 0,0 mm 4,7 km/h (1 Bft) SO 225 0 min 0 W/m 13,1 C 16,6 C 7,2 km/h (2 Bft)
11/06/2012 12:40 16,8 C 80 % 1005,9 hPa 0,0 mm 11,9 km/h (2 Bft) S-SO 202 0 min 0 W/m 13,3 C 16,8 C 15,5 km/h (3 Bft)
11/06/2012 12:50 17,3 C 77 % 1005,8 hPa 0,0 mm 7,6 km/h (2 Bft) SO 225 0 min 0 W/m 13,2 C 17,3 C 8,3 km/h (2 Bft)
11/06/2012 13:00 17,4 C 77 % 1005,7 hPa 0,0 mm 5,8 km/h (2 Bft) SO 225 0 min 0 W/m 13,3 C 17,4 C 12,2 km/h (2 Bft)
11/06/2012 13:10 17,3 C 76 % 1005,6 hPa 0,0 mm 9,0 km/h (2 Bft) S-SO 202 0 min 0 W/m 13,0 C 17,3 C 13,7 km/h (3 Bft)
11/06/2012 13:20 16,9 C 77 % 1005,5 hPa 0,0 mm 5,4 km/h (2 Bft) SO 225 0 min 0 W/m 12,8 C 16,9 C 7,9 km/h (2 Bft)
11/06/2012 13:30 16,8 C 77 % 1005,2 hPa 0,0 mm 6,1 km/h (2 Bft) O-SO 247 0 min 0 W/m 12,7 C 16,8 C 8,3 km/h (2 Bft)
11/06/2012 13:40 17,1 C 77 % 1005,2 hPa 0,0 mm 4,7 km/h (1 Bft) O-SO 247 0 min 0 W/m 13,0 C 17,1 C 10,8 km/h (2 Bft)
11/06/2012 13:50 17,4 C 76 % 1005,2 hPa 0,0 mm 11,9 km/h (2 Bft) S-SO 202 0 min 0 W/m 13,1 C 17,4 C 19,1 km/h (3 Bft)
11/06/2012 14:00 17,4 C 75 % 1005,1 hPa 0,0 mm 4,3 km/h (1 Bft) SO 225 0 min 0 W/m 12,9 C 17,4 C 10,8 km/h (2 Bft)
11/06/2012 14:10 17,4 C 75 % 1005,1 hPa 0,0 mm 4,7 km/h (1 Bft) S 180 0 min 0 W/m 12,9 C 17,4 C 10,1 km/h (2 Bft)
11/06/2012 14:20 17,4 C 74 % 1005,0 hPa 0,0 mm 6,5 km/h (2 Bft) SO 225 0 min 0 W/m 12,7 C 17,4 C 7,2 km/h (2 Bft)
11/06/2012 14:30 17,2 C 75 % 1005,1 hPa 0,0 mm 4,3 km/h (1 Bft) S-SO 202 0 min 0 W/m 12,7 C 17,2 C 6,5 km/h (2 Bft)
11/06/2012 14:40 16,9 C 77 % 1005,0 hPa 0,0 mm 7,9 km/h (2 Bft) SO 225 0 min 0 W/m 12,8 C 16,9 C 14,0 km/h (3 Bft)
11/06/2012 14:50 16,4 C 77 % 1005,1 hPa 0,0 mm 10,1 km/h (2 Bft) SO 225 0 min 0 W/m 12,4 C 16,4 C 14,4 km/h (3 Bft)
11/06/2012 15:00 15,7 C 79 % 1005,1 hPa 0,1 mm 7,6 km/h (2 Bft) SO 225 0 min 0 W/m 12,1 C 15,7 C 15,8 km/h (3 Bft)
11/06/2012 15:10 14,8 C 84 % 1005,4 hPa 0,3 mm 5,0 km/h (1 Bft) S-SO 202 0 min 0 W/m 12,1 C 14,8 C 8,3 km/h (2 Bft)
11/06/2012 15:20 13,9 C 85 % 1005,6 hPa 0,7 mm 10,4 km/h (2 Bft) SO 225 0 min 0 W/m 11,4 C 13,9 C 11,9 km/h (2 Bft)
11/06/2012 15:30 13,3 C 88 % 1005,4 hPa 0,3 mm 2,5 km/h (1 Bft) SO 225 0 min 0 W/m 11,4 C 13,3 C 8,3 km/h (2 Bft)
11/06/2012 15:40 13,1 C 89 % 1005,5 hPa 0,1 mm 3,2 km/h (1 Bft) SO 225 0 min 0 W/m 11,3 C 13,1 C 3,6 km/h (1 Bft)
11/06/2012 15:50 13,1 C 90 % 1005,3 hPa 0,1 mm 1,4 km/h (1 Bft) O 270 0 min 0 W/m 11,5 C 13,1 C 1,4 km/h (1 Bft)
11/06/2012 16:00 13,3 C 91 % 1005,3 hPa 0,1 mm 0,0 km/h (0 Bft) SO 225 0 min 0 W/m 11,9 C 13,3 C 0,0 km/h (0 Bft)
11/06/2012 16:10 13,6 C 91 % 1005,2 hPa 0,2 mm 2,2 km/h (1 Bft) O-SO 247 0 min 0 W/m 12,2 C 13,6 C 4,3 km/h (1 Bft)
11/06/2012 16:20 13,7 C 91 % 1004,8 hPa 0,5 mm 0,0 km/h (0 Bft) SO 225 0 min 0 W/m 12,3 C 13,7 C 0,0 km/h (0 Bft)
11/06/2012 16:30 13,8 C 90 % 1004,4 hPa 0,0 mm 1,1 km/h (1 Bft) SO 225 0 min 0 W/m 12,2 C 13,8 C 4,3 km/h (1 Bft)
11/06/2012 16:40 14,2 C 90 % 1004,2 hPa 0,0 mm 5,8 km/h (2 Bft) SO 225 0 min 0 W/m 12,6 C 14,2 C 7,2 km/h (2 Bft)
11/06/2012 16:50 14,5 C 89 % 1003,8 hPa 0,0 mm 5,4 km/h (2 Bft) S-SO 202 0 min 0 W/m 12,7 C 14,5 C 13,0 km/h (3 Bft)
11/06/2012 17:00 14,8 C 87 % 1004,1 hPa 0,0 mm 7,6 km/h (2 Bft) S 180 0 min 0 W/m 12,7 C 14,8 C 8,3 km/h (2 Bft)
_ Min-Heure 07:30 14:20 16:50 - 16:20 - - - - 06:50 07:30 16:20
Minimum _ 12,3 C 74 % 1003,8 hPa - 0,0 km/h (0 Bft) - - - - 11,0 C 12,3 C 0,0 km/h (0 Bft)
_ Max-Heure 14:20 09:50 00:30 15:20 13:50 - - 17:00 17:00 12:10 14:20 13:50
Maximum _ 17,4 C 94 % 1008,8 hPa 0,7 mm 11,9 km/h
S-SO (2 Bft)
- - 0 min 0 W/m 13,7 C 17,4 C 19,1 km/h
S-SO (3 Bft)
Moyenne _ 13,9 C 89 % 1007,0 hPa #5,2 mm 4,4 km/h (1 Bft) SO - #0 min. 0 W/m 12,0 C 13,9 C 7,3 km/h (2 Bft)
Saint Bonnet de Bellac- Haute Vienne - France